This is the latest recevied weather packets stored in our database for station/object EA7BW-10. If no packets are shown the sender has not sent any weather packets the latest 10 day(s).
| Time | Temp. | Humidity | Pressure | Rain* | Wind** | Luminosity | Snow |
|---|---|---|---|---|---|---|---|
| 1778092876 | 30.56° C | 22% | 1001.8 hPa | - | - | - | - |
| 1778091676 | 30.56° C | 22% | 1001.7 hPa | - | - | - | - |
| 1778090476 | 31.67° C | 22% | 1001.8 hPa | - | - | - | - |
| 1778089276 | 31.67° C | 22% | 1001.9 hPa | - | - | - | - |
| 1778088076 | 31.67° C | 22% | 1002 hPa | - | - | - | - |
| 1778086875 | 31.67° C | 22% | 1002.2 hPa | - | - | - | - |
| 1778085675 | 32.22° C | 22% | 1002.3 hPa | - | - | - | - |
| 1778084477 | 32.22° C | 22% | 1002.4 hPa | - | - | - | - |
| 1778083275 | 32.78° C | 22% | 1002.5 hPa | - | - | - | - |
| 1778082075 | 33.33° C | 22% | 1002.7 hPa | - | - | - | - |
| 1778080875 | 32.78° C | 23% | 1002.9 hPa | - | - | - | - |
| 1778079675 | 32.78° C | 23% | 1003.3 hPa | - | - | - | - |
| 1778078475 | 33.33° C | 23% | 1003.6 hPa | - | - | - | - |
| 1778077275 | 34.44° C | 23% | 1003.9 hPa | - | - | - | - |
| 1778076075 | 35° C | 23% | 1004.1 hPa | - | - | - | - |
| 1778074874 | 34.44° C | 24% | 1004.3 hPa | - | - | - | - |
| 1778073674 | 35.56° C | 24% | 1004.4 hPa | - | - | - | - |
| 1778072474 | 35.56° C | 24% | 1004.7 hPa | - | - | - | - |
| 1778071274 | 35° C | 25% | 1004.8 hPa | - | - | - | - |
| 1778070074 | 35.56° C | 25% | 1005 hPa | - | - | - | - |
| 1778068874 | 35.56° C | 26% | 1005.3 hPa | - | - | - | - |
| 1778067674 | 34.44° C | 28% | 1005.6 hPa | - | - | - | - |
| 1778066474 | 34.44° C | 29% | 1005.6 hPa | - | - | - | - |
| 1778065274 | 36.67° C | 29% | 1006 hPa | - | - | - | - |
| 1778064073 | 37.22° C | 29% | 1005.9 hPa | - | - | - | - |
* Rain since midnight (hover to see other rain measurements)
** Current wind speed in m/s (hover to see current wind gust speed)